When you browse on this site, cookies collect data to enhance your experience and personalize the content and advertising you see.
Visit our Privacy Policy to learn more. By continuing to use the site, you agree to this use of cookies and data.
  • In Netherlands
  • List of Countries
  • For 7 days
  • Water Temperature
  • Satellite Maps
  • Weather Map
  • Weather Widgets
  • user-avatar
    Login

    Hourly Weather Sofia

    Today, 17 July, Wednesday

    Time Temperature Precipitation Wind Pressure Humidity
    00:00 +15°C° 0 mm 1 mps 708 mmHg 87%
    01:00 +15°C° 0 mm 1 mps 708 mmHg 87%
    02:00 +14°C° 0 mm 1 mps 708 mmHg 88%
    03:00 +14°C° 0 mm 1 mps 708 mmHg 89%
    04:00 +14°C° 0 mm 1 mps 708 mmHg 89%
    05:00 +13°C° 0 mm 1 mps 707 mmHg 89%
    06:00 +15°C° 0 mm 1 mps 708 mmHg 85%
    07:00 +18°C° 0 mm 1 mps 708 mmHg 80%
    08:00 +20°C° 0 mm 1 mps 708 mmHg 75%
    09:00 +21°C° 0.1 mm 1 mps 709 mmHg 68%
    10:00 +23°C° 0.1 mm 2 mps 709 mmHg 61%
    11:00 +24°C° 0.1 mm 2 mps 709 mmHg 53%
    12:00 +24°C° 0.2 mm 2 mps 709 mmHg 54%
    13:00 +24°C° 0.2 mm 2 mps 708 mmHg 55%
    14:00 +25°C° 0.2 mm 3 mps 708 mmHg 56%
    15:00 +25°C° 0.1 mm 3 mps 708 mmHg 55%
    16:00 +25°C° 0.1 mm 3 mps 708 mmHg 55%
    17:00 +25°C° 0.1 mm 3 mps 708 mmHg 54%
    18:00 +23°C° 0 mm 2 mps 708 mmHg 60%
    19:00 +20°C° 0 mm 2 mps 707 mmHg 67%
    20:00 +19°C° 0 mm 1 mps 707 mmHg 73%
    21:00 +18°C° 0 mm 1 mps 707 mmHg 77%
    22:00 +18°C° 0 mm 1 mps 708 mmHg 80%
    23:00 +16°C° 0 mm 1 mps 708 mmHg 83%

    Tomorrow, 18 July, Thursday

    Time Temperature Precipitation Wind Pressure Humidity
    00:00 +15°C° 0 mm 1 mps 708 mmHg 85%
    01:00 +15°C° 0 mm 1 mps 708 mmHg 86%
    02:00 +15°C° 0 mm 1 mps 708 mmHg 87%
    03:00 +14°C° 0 mm 1 mps 708 mmHg 87%
    04:00 +14°C° 0 mm 1 mps 708 mmHg 88%
    05:00 +13°C° 0 mm 1 mps 708 mmHg 89%
    06:00 +15°C° 0 mm 1 mps 708 mmHg 83%
    07:00 +18°C° 0 mm 1 mps 708 mmHg 78%
    08:00 +20°C° 0 mm 1 mps 709 mmHg 73%
    09:00 +22°C° 0 mm 1 mps 709 mmHg 65%
    10:00 +23°C° 0 mm 1 mps 709 mmHg 58%
    11:00 +25°C° 0 mm 1 mps 710 mmHg 50%
    12:00 +26°C° 0 mm 1 mps 709 mmHg 48%
    13:00 +27°C° 0 mm 1 mps 709 mmHg 45%
    14:00 +28°C° 0 mm 1 mps 709 mmHg 42%
    15:00 +27°C° 0 mm 1 mps 709 mmHg 43%
    16:00 +27°C° 0 mm 1 mps 709 mmHg 44%
    17:00 +27°C° 0 mm 1 mps 709 mmHg 45%
    18:00 +25°C° 0 mm 1 mps 709 mmHg 54%
    19:00 +23°C° 0 mm 1 mps 709 mmHg 62%
    20:00 +21°C° 0 mm 1 mps 709 mmHg 71%
    21:00 +20°C° 0 mm 1 mps 709 mmHg 73%
    22:00 +19°C° 0 mm 1 mps 710 mmHg 75%
    23:00 +17°C° 0 mm 0 mps 710 mmHg 77%

    Day after tomorrow, 19 July, Friday

    Time Temperature Precipitation Wind Pressure Humidity
    00:00 +16°C° 0 mm 0 mps 710 mmHg 78%
    01:00 +16°C° 0 mm 0 mps 710 mmHg 78%
    02:00 +15°C° 0 mm 0 mps 710 mmHg 78%
    03:00 +15°C° 0 mm 0 mps 710 mmHg 79%
    04:00 +15°C° 0 mm 0 mps 710 mmHg 80%
    05:00 +14°C° 0 mm 0 mps 710 mmHg 80%
    06:00 +16°C° 0 mm 0 mps 711 mmHg 75%
    07:00 +18°C° 0 mm 0 mps 711 mmHg 70%
    08:00 +20°C° 0 mm 0 mps 712 mmHg 64%
    09:00 +22°C° 0 mm 0 mps 712 mmHg 59%
    10:00 +26°C° 0 mm 1 mps 712 mmHg 53%
    11:00 +28°C° 0 mm 1 mps 712 mmHg 48%
    12:00 +28°C° 0 mm 1 mps 712 mmHg 45%
    13:00 +29°C° 0 mm 1 mps 712 mmHg 43%
    14:00 +29°C° 0 mm 1 mps 712 mmHg 40%
    15:00 +29°C° 0.2 mm 1 mps 712 mmHg 42%
    16:00 +29°C° 0.2 mm 1 mps 712 mmHg 45%
    17:00 +28°C° 0.2 mm 1 mps 711 mmHg 47%
    18:00 +26°C° 0 mm 1 mps 711 mmHg 54%
    19:00 +24°C° 0 mm 1 mps 711 mmHg 61%
    20:00 +22°C° 0 mm 1 mps 711 mmHg 69%
    21:00 +21°C° 0 mm 1 mps 711 mmHg 70%
    22:00 +21°C° 0 mm 1 mps 712 mmHg 71%
    23:00 +20°C° 0 mm 1 mps 712 mmHg 72%

    20 July, Saturday

    Time Temperature Precipitation Wind Pressure Humidity
    00:00 +19°C° 0 mm 1 mps 712 mmHg 74%
    01:00 +19°C° 0 mm 1 mps 712 mmHg 76%
    02:00 +18°C° 0 mm 1 mps 712 mmHg 78%
    03:00 +18°C° 0 mm 1 mps 712 mmHg 80%
    04:00 +16°C° 0 mm 1 mps 712 mmHg 82%
    05:00 +16°C° 0 mm 1 mps 712 mmHg 84%
    06:00 +19°C° 0 mm 1 mps 712 mmHg 78%
    07:00 +19°C° 0 mm 0 mps 713 mmHg 71%
    08:00 +21°C° 0 mm 0 mps 713 mmHg 65%
    09:00 +24°C° 0 mm 1 mps 713 mmHg 59%
    10:00 +26°C° 0 mm 1 mps 714 mmHg 52%
    11:00 +28°C° 0 mm 1 mps 714 mmHg 46%
    12:00 +29°C° 0 mm 1 mps 714 mmHg 43%
    13:00 +30°C° 0 mm 1 mps 714 mmHg 40%
    14:00 +30°C° 0 mm 2 mps 714 mmHg 37%
    15:00 +30°C° 0.1 mm 2 mps 713 mmHg 40%
    16:00 +29°C° 0.1 mm 2 mps 713 mmHg 43%
    17:00 +29°C° 0.1 mm 3 mps 713 mmHg 46%
    18:00 +27°C° 0 mm 2 mps 713 mmHg 53%
    19:00 +25°C° 0 mm 2 mps 713 mmHg 60%
    20:00 +23°C° 0 mm 1 mps 713 mmHg 67%
    21:00 +22°C° 0 mm 1 mps 713 mmHg 67%
    22:00 +22°C° 0 mm 1 mps 713 mmHg 68%
    23:00 +19°C° 0 mm 0 mps 714 mmHg 68%

    21 July, Sunday

    Time Temperature Precipitation Wind Pressure Humidity
    00:00 +18°C° 0 mm 0 mps 714 mmHg 69%
    01:00 +18°C° 0 mm 0 mps 713 mmHg 70%
    02:00 +17°C° 0 mm 0 mps 713 mmHg 71%
    03:00 +17°C° 0 mm 0 mps 713 mmHg 72%
    04:00 +17°C° 0 mm 0 mps 713 mmHg 73%
    05:00 +16°C° 0 mm 0 mps 713 mmHg 74%
    06:00 +18°C° 0 mm 0 mps 713 mmHg 69%
    07:00 +20°C° 0 mm 0 mps 714 mmHg 64%
    08:00 +22°C° 0 mm 0 mps 714 mmHg 59%
    09:00 +24°C° 0 mm 0 mps 714 mmHg 54%
    10:00 +28°C° 0 mm 1 mps 715 mmHg 49%
    11:00 +30°C° 0 mm 1 mps 715 mmHg 43%
    12:00 +30°C° 0 mm 1 mps 715 mmHg 42%
    13:00 +31°C° 0 mm 1 mps 715 mmHg 40%
    14:00 +31°C° 0 mm 2 mps 714 mmHg 38%
    15:00 +31°C° 0 mm 2 mps 714 mmHg 41%
    16:00 +30°C° 0 mm 2 mps 714 mmHg 44%
    17:00 +30°C° 0 mm 2 mps 714 mmHg 47%
    18:00 +28°C° 0 mm 2 mps 714 mmHg 54%
    19:00 +26°C° 0 mm 1 mps 713 mmHg 60%
    20:00 +24°C° 0 mm 1 mps 713 mmHg 67%
    21:00 +23°C° 0 mm 1 mps 713 mmHg 69%
    22:00 +22°C° 0 mm 1 mps 714 mmHg 71%
    23:00 +20°C° 0 mm 0 mps 714 mmHg 72%

    22 July, Monday

    Time Temperature Precipitation Wind Pressure Humidity
    00:00 +19°C° 0 mm 0 mps 714 mmHg 73%
    01:00 +19°C° 0 mm 0 mps 714 mmHg 74%
    02:00 +19°C° 0 mm 0 mps 713 mmHg 75%
    03:00 +18°C° 0 mm 0 mps 713 mmHg 76%
    04:00 +18°C° 0 mm 0 mps 713 mmHg 77%
    05:00 +18°C° 0 mm 0 mps 713 mmHg 78%
    06:00 +20°C° 0 mm 0 mps 713 mmHg 73%
    07:00 +23°C° 0 mm 1 mps 714 mmHg 68%
    08:00 +25°C° 0 mm 1 mps 714 mmHg 62%
    09:00 +27°C° 0 mm 1 mps 714 mmHg 57%
    10:00 +28°C° 0 mm 2 mps 714 mmHg 53%
    11:00 +30°C° 0 mm 2 mps 714 mmHg 48%
    12:00 +30°C° 0 mm 2 mps 714 mmHg 46%
    13:00 +31°C° 0 mm 2 mps 713 mmHg 44%
    14:00 +31°C° 0 mm 2 mps 713 mmHg 42%
    15:00 +31°C° 0 mm 2 mps 713 mmHg 46%
    16:00 +30°C° 0 mm 2 mps 712 mmHg 49%
    17:00 +29°C° 0 mm 2 mps 712 mmHg 53%
    18:00 +28°C° 0 mm 2 mps 712 mmHg 57%
    19:00 +26°C° 0 mm 1 mps 712 mmHg 62%
    20:00 +25°C° 0 mm 1 mps 712 mmHg 67%
    21:00 +24°C° 0 mm 1 mps 712 mmHg 68%
    22:00 +23°C° 0 mm 1 mps 712 mmHg 70%
    23:00 +22°C° 0 mm 1 mps 712 mmHg 71%
    Show more